Location: Leuk
(46.3174°N, 7.6341°E)
Time: 15:09:22
(UTC+00:00)

Cosmos 2315 Rocket - Pass Details

Date: 09 March 2021
Orbit: 967 x 1001 km, 82.9° (Epoch: 18 April)

Event Time Altitude Azimuth Distance (km) Brightness Sun altitude
Exits shadow 04:34:41 10° 220° (SW) 2,673 5.9 -14.4°
Maximum altitude 04:40:18 38° 287° (WNW) 1,441 4.5 -13.5°
Drops below altitude 10° 04:46:03 10° 355° (N) 2,720 6.4 -12.5°
Sets 04:48:47 0° 3° (N) 3,674 7.1 -12.0°
